Volver al catálogo

BREEZE-M DEB

ActivoHEO
NORAD 39599·DEBRIS·🇷🇺 Russia

Lanzado Mar 14, 2008 desde Baikonur Cosmodrome

Loading…

Próximos Pases (próximas 24 horas)

TLE

ActualizadoSource: Space-Track

Época: Sep 14, 2026, 01:23 UTC

1 39599U 08011DK  26257.05809009  .00001701  00000-0  10862-1 0  9995
2 39599  49.9419 310.7259 6462709 220.4263  67.0421  3.16073849147455

Sigue BREEZE-M DEB en tiempo real con AllMySat

Download on the App Store